Skip Page Navigation
NASA JPL Caltech
NASA Logo - Jet Propulsion Laboratory + View the NASA Portal
+ Center for Near-Earth Object Studies
JPL Home Earth Solar System Stars & Galaxies Technology
JPL Solar System Dynamics
BODIES ORBITS EPHEMERIDES TOOLS PHYSICAL DATA DISCOVERY FAQ SITE MAP
JPL Small-Body Database Browser
Search: [ help ]  
233310 (2006 BR87)
Classification: Main-belt Asteroid          SPK-ID: 2233310
Ephemeris | Orbit Diagram | Orbital Elements | Mission Design | Physical Parameters | Discovery Circumstances | Close-Approach Data ]

[ show orbit diagram ]
Orbital Elements at Epoch 2459000.5 (2020-May-31.0) TDB
Reference: JPL 16 (heliocentric ecliptic J2000)
 Element Value Uncertainty (1-sigma)   Units 
e .1287354401457017 4.1964e-08  
a 2.476058459990739 2.0356e-08 au
q 2.157301984317343 9.781e-08 au
i 2.435159557400483 9.2034e-06 deg
node 356.5171239044228 0.00010786 deg
peri 249.6828091901023 0.00011663 deg
M 150.1700491474691 4.1216e-05 deg
tp 2458406.863507608205
(2018-Oct-15.36350761)
0.00016582 TDB
period 1423.11425263756
3.90
1.755e-05
4.805e-08
d
yr
n .2529663372654627 3.1195e-09 deg/d
Q 2.794814935664135 2.2977e-08 au
  Orbit Determination Parameters
   # obs. used (total)      249  
   data-arc span      9861 days (27.00 yr)  
   first obs. used      1992-10-03  
   last obs. used      2019-10-03  
   planetary ephem.      DE431  
   SB-pert. ephem.      SB431-N16  
   condition code      0  
   norm. resid. RMS      .62707  
   source      ORB  
   producer      Otto Matic  
   solution date      2019-Nov-08 01:35:25  

Additional Information
 Earth MOID = 1.14533 au 
 Jupiter MOID = 2.22964 au 
 T_jup = 3.468 
[ show covariance matrix ]

Ephemeris | Orbit Diagram | Orbital Elements | Mission Design | Physical Parameters | Discovery Circumstances | Close-Approach Data ]

Physical Parameter Table
Parameter Symbol Value Units Sigma Reference Notes
absolute magnitude H 16.8   n/a MPO437096  

233310 (2006 BR87)          Discovered 2006-Jan-25 by Spacewatch at Kitt Peak
Reference: 20100228/Numbers.arcLast Updated: 2010-03-03

[ show close-approach data ]
Ephemeris | Orbit Diagram | Orbital Elements | Mission Design | Physical Parameters | Discovery Circumstances | Close-Approach Data ]
ABOUT SSD CREDITS/AWARDS PRIVACY/COPYRIGHT GLOSSARY LINKS
FirstGov 2020-Aug-09 01:02 UT
(server date/time)  
NASA Home Page
Site Manager:   Ryan S. Park
Webmaster  Alan B. Chamberlin